Home > Weather > Burnaby > Past weeks

Flag for Canada Past Weather in Burnaby, British Columbia, Canada — Yesterday and Last 2 Weeks

Now
66 °F

Sunny.


Feels Like: 66 °F
Forecast: 55 / 78 °F
Wind: 8 mph from South

Location: Vancouver International Airport

Current Time: Jun 29, 2016 at 11:22:16 AM

Latest Report: Jun 29, 2016 at 11:00 AM


Visibility: 30 mi

Pressure: 30.17 "Hg

Humidity: 73%

Dew Point: 57 °F

Location of BurnabyLocation

Past Weather in Burnaby — Graph

°F

Burnaby Temperature Yesterday

Maximum temperature yesterday: 72 °F (at 6:00 PM)
Minimum temperature yesterday: 57 °F (at 4:00 AM)
Average temperature yesterday: 65 °F

High & Low Weather Summary for the Past Weeks

 TemperatureHumidityPressure
High75 °F (Jun 27, 3:00 PM)100% (Jun 20, 1:00 AM)30.42 "Hg (Jun 20, 1:00 AM)
Low46 °F (Jun 15, 3:00 AM)52% (Jun 17, 3:00 PM)29.87 "Hg (Jun 14, 10:00 AM)
Average60 °F78%30.12 "Hg
* Reported Jun 14 10:00 AM — Jun 29 10:00 AM, Burnaby, Weather by CustomWeather, © 2016

Note: Actual official high and low records may vary slightly from our data, if they occured in-between our weather recording intervals... More about our weather records

Advertising

Burnaby Weather History for the Previous 24 Hours

Scroll right to see more
 ConditionsComfort  
Time TempWeatherWind HumidityBarometerVisibility
10:00 AM
Wed, Jun 29
64 °FSunny.9 mph73%30.18 "Hg30 mi
9:00 AM63 °FSunny.9 mph77%30.18 "Hg30 mi
8:00 AM61 °FPassing clouds.5 mph83%30.17 "Hg30 mi
7:00 AM59 °FPassing clouds.9 mph88%30.16 "Hg20 mi
6:00 AM57 °FPassing clouds.7 mph94%30.16 "Hg20 mi
5:00 AM57 °FPassing clouds.9 mph88%30.15 "Hg20 mi
4:00 AM57 °FPassing clouds.8 mph94%30.14 "Hg20 mi
3:00 AM57 °FPassing clouds.8 mph94%30.13 "Hg20 mi
2:00 AM57 °FClear.8 mph94%30.12 "Hg20 mi
1:00 AM59 °FClear.7 mph88%30.12 "Hg30 mi
12:00 AM63 °FClear.7 mph83%30.10 "Hg30 mi
11:00 PM
Tue, Jun 28
63 °FClear.8 mph83%30.10 "Hg30 mi
10:00 PM64 °FPassing clouds.8 mph78%30.10 "Hg30 mi
9:00 PM68 °FPassing clouds.9 mph69%30.09 "Hg30 mi
8:00 PM72 °FPassing clouds.7 mph65%30.08 "Hg30 mi
7:00 PM72 °FPassing clouds.7 mph65%30.08 "Hg30 mi
6:00 PM72 °FSunny.8 mph69%30.09 "Hg30 mi
5:00 PM70 °FSunny.8 mph73%30.10 "Hg30 mi
4:00 PM68 °FSunny.9 mph78%30.12 "Hg30 mi
3:00 PM68 °FPassing clouds.9 mph73%30.14 "Hg30 mi
2:00 PM66 °FSunny.12 mph78%30.15 "Hg30 mi
1:00 PM66 °FSunny.9 mph78%30.16 "Hg30 mi
12:00 PM68 °FSunny.12 mph73%30.18 "Hg30 mi
11:00 AM66 °FSunny.6 mph68%30.18 "Hg30 mi
Weather by CustomWeather, © 2016

See weather overviewHow to use our weather pages